{"data":{"norad_id":53484,"intl_designator":"2022-099V","name":"STARLINK-4426","alt_names":[],"object_type":"PAYLOAD","status":"ACTIVE","operator":null,"country":"US","launch_date":"2022-08-12","launch_site_code":"AFWTR","launch_vehicle":null,"mission":null,"orbit_class":"UNKNOWN","rcs_meters":null,"size_class":null,"mass_kg":null,"dimensions":null,"purposes":["comms"],"wikipedia_slug":null,"has_3d_model":false,"image_url":null,"decayed_at":null,"tle_current":{"epoch":"2026-09-20T06:13:35.978880Z","epoch_age_seconds":99855,"freshness":"FRESH","line1":"1 53484U 22099V   26263.25944420  .00000705  00000+0  24167-4 0  9990","line2":"2 53484  97.2862  20.9554 0000997  96.8448 263.2908 15.33435060225514","mean_motion":15.3343506,"eccentricity":9.97e-5,"inclination_deg":97.2862,"raan_deg":20.9554,"arg_perigee_deg":96.8448,"mean_anomaly_deg":263.2908,"bstar":2.4167e-5,"rev_number":22551,"period_min":93.906813373629,"perigee_km":464.89043122252,"apogee_km":466.25506694649,"semimajor_km":6843.7097490845,"source":"CELESTRAK","updated_at":"2026-09-21T09:00:32.891149Z"}}}